Year,Month,Day,Hour,Minute,Value (Times are PST for temperature in C)
2006,05,16,00,00,14.60
2006,05,16,00,01,14.50
2006,05,16,00,02,14.50
2006,05,16,00,03,14.40
2006,05,16,00,04,14.40
2006,05,16,00,05,14.40
2006,05,16,00,06,14.40
2006,05,16,00,07,14.40
2006,05,16,00,08,14.40
2006,05,16,00,09,14.30
2006,05,16,00,10,14.30
2006,05,16,00,11,14.30
2006,05,16,00,12,14.30
2006,05,16,00,13,14.30
2006,05,16,00,14,14.30
2006,05,16,00,15,14.30
2006,05,16,00,16,14.30
2006,05,16,00,17,14.30
2006,05,16,00,18,14.30
2006,05,16,00,19,14.30
2006,05,16,00,20,14.30
2006,05,16,00,21,14.20
2006,05,16,00,22,14.20
2006,05,16,00,23,14.20
2006,05,16,00,24,14.20
2006,05,16,00,25,14.20
2006,05,16,00,26,14.20
2006,05,16,00,27,14.30
2006,05,16,00,28,14.30
2006,05,16,00,29,14.30
2006,05,16,00,30,14.40
2006,05,16,00,31,14.40
2006,05,16,00,32,14.40
2006,05,16,00,33,14.40
2006,05,16,00,34,14.40
2006,05,16,00,35,14.40
2006,05,16,00,36,14.40
2006,05,16,00,37,14.40
2006,05,16,00,38,14.40
2006,05,16,00,39,14.40
2006,05,16,00,40,14.40
2006,05,16,00,41,14.40
2006,05,16,00,42,14.30
2006,05,16,00,43,14.30
2006,05,16,00,44,14.30
2006,05,16,00,45,14.30
2006,05,16,00,46,14.30
2006,05,16,00,47,14.30
2006,05,16,00,48,14.40
2006,05,16,00,49,14.40
2006,05,16,00,50,14.40
2006,05,16,00,51,14.50
2006,05,16,00,52,14.50
2006,05,16,00,53,14.50
2006,05,16,00,54,14.50
2006,05,16,00,55,14.50
2006,05,16,00,56,14.50
2006,05,16,00,57,14.50
2006,05,16,00,58,14.40
2006,05,16,00,59,14.40
2006,05,16,01,00,14.40
2006,05,16,01,01,14.40
2006,05,16,01,02,14.30
2006,05,16,01,03,14.30
2006,05,16,01,04,14.30
2006,05,16,01,05,14.30
2006,05,16,01,06,14.20
2006,05,16,01,07,14.20
2006,05,16,01,08,14.20
2006,05,16,01,09,14.20
2006,05,16,01,10,14.20
2006,05,16,01,11,14.20
2006,05,16,01,12,14.20
2006,05,16,01,13,14.10
2006,05,16,01,14,14.10
2006,05,16,01,15,14.00
2006,05,16,01,16,14.00
2006,05,16,01,17,14.00
2006,05,16,01,18,13.90
2006,05,16,01,19,13.90
2006,05,16,01,20,14.00
2006,05,16,01,21,14.00
2006,05,16,01,22,14.00
2006,05,16,01,23,14.00
2006,05,16,01,24,14.00
2006,05,16,01,25,14.00
2006,05,16,01,26,14.00
2006,05,16,01,27,14.00
2006,05,16,01,28,14.00
2006,05,16,01,29,14.00
2006,05,16,01,30,14.00
2006,05,16,01,31,14.00
2006,05,16,01,32,14.00
2006,05,16,01,33,14.00
2006,05,16,01,34,14.00
2006,05,16,01,35,14.00
2006,05,16,01,36,13.90
2006,05,16,01,37,13.90
2006,05,16,01,38,13.90
2006,05,16,01,39,13.90
2006,05,16,01,40,13.90
2006,05,16,01,41,13.90
2006,05,16,01,42,13.90
2006,05,16,01,43,13.90
2006,05,16,01,44,13.90
2006,05,16,01,45,13.90
2006,05,16,01,46,13.90
2006,05,16,01,47,13.90
2006,05,16,01,48,13.90
2006,05,16,01,49,13.80
2006,05,16,01,50,13.80
2006,05,16,01,51,13.80
2006,05,16,01,52,13.80
2006,05,16,01,53,13.70
2006,05,16,01,54,13.70
2006,05,16,01,55,13.70
2006,05,16,01,56,13.70
2006,05,16,01,57,13.70
2006,05,16,01,58,13.70
2006,05,16,01,59,13.70
2006,05,16,02,00,13.70
2006,05,16,02,01,13.70
2006,05,16,02,02,13.80
2006,05,16,02,03,13.80
2006,05,16,02,04,13.80
2006,05,16,02,05,13.80
2006,05,16,02,06,13.80
2006,05,16,02,07,13.80
2006,05,16,02,08,13.80
2006,05,16,02,09,13.70
2006,05,16,02,10,13.70
2006,05,16,02,11,13.70
2006,05,16,02,12,13.70
2006,05,16,02,13,13.70
2006,05,16,02,14,13.70
2006,05,16,02,15,13.70
2006,05,16,02,16,13.60
2006,05,16,02,17,13.60
2006,05,16,02,18,13.60
2006,05,16,02,19,13.60
2006,05,16,02,20,13.60
2006,05,16,02,21,13.50
2006,05,16,02,22,13.50
2006,05,16,02,23,13.50
2006,05,16,02,24,13.50
2006,05,16,02,25,13.40
2006,05,16,02,26,13.40
2006,05,16,02,27,13.40
2006,05,16,02,28,13.30
2006,05,16,02,29,13.30
2006,05,16,02,30,13.30
2006,05,16,02,31,13.30
2006,05,16,02,32,13.30
2006,05,16,02,33,13.30
2006,05,16,02,34,13.30
2006,05,16,02,35,13.30
2006,05,16,02,36,13.30
2006,05,16,02,37,13.30
2006,05,16,02,38,13.30
2006,05,16,02,39,13.40
2006,05,16,02,40,13.40
2006,05,16,02,41,13.40
2006,05,16,02,42,13.40
2006,05,16,02,43,13.30
2006,05,16,02,44,13.30
2006,05,16,02,45,13.30
2006,05,16,02,46,13.40
2006,05,16,02,47,13.40
2006,05,16,02,48,13.40
2006,05,16,02,49,13.40
2006,05,16,02,50,13.40
2006,05,16,02,51,13.40
2006,05,16,02,52,13.40
2006,05,16,02,53,13.40
2006,05,16,02,54,13.40
2006,05,16,02,55,13.40
2006,05,16,02,56,13.40
2006,05,16,02,57,13.40
2006,05,16,02,58,13.40
2006,05,16,02,59,13.40
2006,05,16,03,00,13.40
2006,05,16,03,01,13.40
2006,05,16,03,02,13.40
2006,05,16,03,03,13.40
2006,05,16,03,04,13.30
2006,05,16,03,05,13.30
2006,05,16,03,06,13.30
2006,05,16,03,07,13.30
2006,05,16,03,08,13.30
2006,05,16,03,09,13.30
2006,05,16,03,10,13.30
2006,05,16,03,11,13.30
2006,05,16,03,12,13.30
2006,05,16,03,13,13.30
2006,05,16,03,14,13.30
2006,05,16,03,15,13.30
2006,05,16,03,16,13.30
2006,05,16,03,17,13.30
2006,05,16,03,18,13.30
2006,05,16,03,19,13.30
2006,05,16,03,20,13.30
2006,05,16,03,21,13.30
2006,05,16,03,22,13.30
2006,05,16,03,23,13.30
2006,05,16,03,24,13.30
2006,05,16,03,25,13.30
2006,05,16,03,26,13.30
2006,05,16,03,27,13.20
2006,05,16,03,28,13.20
2006,05,16,03,29,13.20
2006,05,16,03,30,13.20
2006,05,16,03,31,13.10
2006,05,16,03,32,13.10
2006,05,16,03,33,13.10
2006,05,16,03,34,13.10
2006,05,16,03,35,13.10
2006,05,16,03,36,13.10
2006,05,16,03,37,13.10
2006,05,16,03,38,13.10
2006,05,16,03,39,13.10
2006,05,16,03,40,13.10
2006,05,16,03,41,13.10
2006,05,16,03,42,13.10
2006,05,16,03,43,13.10
2006,05,16,03,44,13.10
2006,05,16,03,45,13.10
2006,05,16,03,46,13.00
2006,05,16,03,47,13.10
2006,05,16,03,48,13.10
2006,05,16,03,49,13.10
2006,05,16,03,50,13.10
2006,05,16,03,51,13.10
2006,05,16,03,52,13.10
2006,05,16,03,53,13.10
2006,05,16,03,54,13.10
2006,05,16,03,55,13.10
2006,05,16,03,56,13.10
2006,05,16,03,57,13.10
2006,05,16,03,58,13.10
2006,05,16,03,59,13.10
2006,05,16,04,00,13.10
2006,05,16,04,01,13.10
2006,05,16,04,02,13.10
2006,05,16,04,03,13.10
2006,05,16,04,04,13.10
2006,05,16,04,05,13.10
2006,05,16,04,06,13.10
2006,05,16,04,07,13.10
2006,05,16,04,08,13.10
2006,05,16,04,09,13.10
2006,05,16,04,10,13.10
2006,05,16,04,11,13.10
2006,05,16,04,12,13.10
2006,05,16,04,13,13.10
2006,05,16,04,14,13.10
2006,05,16,04,15,13.10
2006,05,16,04,16,13.10
2006,05,16,04,17,13.10
2006,05,16,04,18,13.20
2006,05,16,04,19,13.20
2006,05,16,04,20,13.20
2006,05,16,04,21,13.20
2006,05,16,04,22,13.30
2006,05,16,04,23,13.30
2006,05,16,04,24,13.30
2006,05,16,04,25,13.30
2006,05,16,04,26,13.20
2006,05,16,04,27,13.20
2006,05,16,04,28,13.20
2006,05,16,04,29,13.20
2006,05,16,04,30,13.10
2006,05,16,04,31,13.10
2006,05,16,04,32,13.10
2006,05,16,04,33,13.10
2006,05,16,04,34,13.10
2006,05,16,04,35,13.10
2006,05,16,04,36,13.10
2006,05,16,04,37,13.10
2006,05,16,04,38,13.20
2006,05,16,04,39,13.20
2006,05,16,04,40,13.20
2006,05,16,04,41,13.20
2006,05,16,04,42,13.20
2006,05,16,04,43,13.20
2006,05,16,04,44,13.30
2006,05,16,04,45,13.30
2006,05,16,04,46,13.30
2006,05,16,04,47,13.30
2006,05,16,04,48,13.30
2006,05,16,04,49,13.30
2006,05,16,04,50,13.30
2006,05,16,04,51,13.30
2006,05,16,04,52,13.30
2006,05,16,04,53,13.30
2006,05,16,04,54,13.30
2006,05,16,04,55,13.30
2006,05,16,04,56,13.30
2006,05,16,04,57,13.30
2006,05,16,04,58,13.30
2006,05,16,04,59,13.30
2006,05,16,05,00,13.30
2006,05,16,05,01,13.30
2006,05,16,05,02,13.30
2006,05,16,05,03,13.30
2006,05,16,05,04,13.20
2006,05,16,05,05,13.20
2006,05,16,05,06,13.20
2006,05,16,05,07,13.20
2006,05,16,05,08,13.10
2006,05,16,05,09,13.10
2006,05,16,05,10,13.20
2006,05,16,05,11,13.20
2006,05,16,05,12,13.20
2006,05,16,05,13,13.20
2006,05,16,05,14,13.20
2006,05,16,05,15,13.20
2006,05,16,05,16,13.20
2006,05,16,05,17,13.20
2006,05,16,05,18,13.20
2006,05,16,05,19,13.20
2006,05,16,05,20,13.10
2006,05,16,05,21,13.10
2006,05,16,05,22,13.10
2006,05,16,05,23,13.00
2006,05,16,05,24,13.00
2006,05,16,05,25,12.90
2006,05,16,05,26,12.90
2006,05,16,05,27,12.80
2006,05,16,05,28,12.80
2006,05,16,05,29,12.80
2006,05,16,05,30,12.70
2006,05,16,05,31,12.60
2006,05,16,05,32,12.60
2006,05,16,05,33,12.50
2006,05,16,05,34,12.50
2006,05,16,05,35,12.40
2006,05,16,05,36,12.40
2006,05,16,05,37,12.30
2006,05,16,05,38,12.30
2006,05,16,05,39,12.30
2006,05,16,05,40,12.30
2006,05,16,05,41,12.20
2006,05,16,05,42,12.20
2006,05,16,05,43,12.20
2006,05,16,05,44,12.10
2006,05,16,05,45,12.10
2006,05,16,05,46,12.10
2006,05,16,05,47,12.00
2006,05,16,05,48,12.00
2006,05,16,05,49,12.00
2006,05,16,05,50,12.00
2006,05,16,05,51,12.00
2006,05,16,05,52,12.00
2006,05,16,05,53,11.90
2006,05,16,05,54,11.90
2006,05,16,05,55,11.90
2006,05,16,05,56,11.80
2006,05,16,05,57,11.80
2006,05,16,05,58,11.80
2006,05,16,05,59,11.80
2006,05,16,06,00,11.80
2006,05,16,06,01,11.80
2006,05,16,06,02,11.80
2006,05,16,06,03,11.80
2006,05,16,06,04,11.80
2006,05,16,06,05,11.80
2006,05,16,06,06,11.80
2006,05,16,06,07,11.80
2006,05,16,06,08,11.80
2006,05,16,06,09,11.80
2006,05,16,06,10,11.80
2006,05,16,06,11,11.90
2006,05,16,06,12,11.90
2006,05,16,06,13,11.90
2006,05,16,06,14,12.00
2006,05,16,06,15,12.00
2006,05,16,06,16,12.00
2006,05,16,06,17,12.10
2006,05,16,06,18,12.10
2006,05,16,06,19,12.20
2006,05,16,06,20,12.20
2006,05,16,06,21,12.30
2006,05,16,06,22,12.30
2006,05,16,06,23,12.30
2006,05,16,06,24,12.50
2006,05,16,06,25,12.60
2006,05,16,06,26,12.70
2006,05,16,06,27,12.80
2006,05,16,06,28,12.80
2006,05,16,06,29,13.00
2006,05,16,06,30,13.00
2006,05,16,06,31,13.10
2006,05,16,06,32,13.20
2006,05,16,06,33,13.20
2006,05,16,06,34,13.30
2006,05,16,06,35,13.30
2006,05,16,06,36,13.40
2006,05,16,06,37,13.40
2006,05,16,06,38,13.40
2006,05,16,06,39,13.50
2006,05,16,06,40,13.50
2006,05,16,06,41,13.50
2006,05,16,06,42,13.50
2006,05,16,06,43,13.60
2006,05,16,06,44,13.60
2006,05,16,06,45,13.70
2006,05,16,06,46,13.90
2006,05,16,06,47,14.00
2006,05,16,06,48,14.10
2006,05,16,06,49,14.20
2006,05,16,06,50,14.30
2006,05,16,06,51,14.40
2006,05,16,06,52,14.50
2006,05,16,06,53,14.60
2006,05,16,06,54,14.70
2006,05,16,06,55,14.80
2006,05,16,06,56,14.90
2006,05,16,06,57,15.10
2006,05,16,06,58,15.10
2006,05,16,06,59,15.20
2006,05,16,07,00,15.30
2006,05,16,07,01,15.30
2006,05,16,07,02,15.30
2006,05,16,07,03,15.30
2006,05,16,07,04,15.40
2006,05,16,07,05,15.40
2006,05,16,07,06,15.40
2006,05,16,07,07,15.50
2006,05,16,07,08,15.50
2006,05,16,07,09,15.50
2006,05,16,07,10,15.60
2006,05,16,07,11,15.60
2006,05,16,07,12,15.70
2006,05,16,07,13,15.70
2006,05,16,07,14,15.80
2006,05,16,07,15,15.80
2006,05,16,07,16,15.90
2006,05,16,07,17,16.00
2006,05,16,07,18,16.10
2006,05,16,07,19,16.10
2006,05,16,07,20,16.20
2006,05,16,07,21,16.30
2006,05,16,07,22,16.30
2006,05,16,07,23,16.30
2006,05,16,07,24,16.40
2006,05,16,07,25,16.40
2006,05,16,07,26,16.40
2006,05,16,07,27,16.40
2006,05,16,07,28,16.50
2006,05,16,07,29,16.40
2006,05,16,07,30,16.60
2006,05,16,07,31,16.60
2006,05,16,07,32,16.70
2006,05,16,07,33,16.80
2006,05,16,07,34,16.90
2006,05,16,07,35,16.90
2006,05,16,07,36,16.90
2006,05,16,07,37,16.90
2006,05,16,07,38,16.90
2006,05,16,07,39,16.80
2006,05,16,07,40,16.80
2006,05,16,07,41,16.70
2006,05,16,07,42,16.70
2006,05,16,07,43,16.70
2006,05,16,07,44,16.80
2006,05,16,07,45,16.80
2006,05,16,07,46,16.80
2006,05,16,07,47,16.80
2006,05,16,07,48,16.70
2006,05,16,07,49,16.70
2006,05,16,07,50,16.70
2006,05,16,07,51,16.80
2006,05,16,07,52,16.80
2006,05,16,07,53,16.90
2006,05,16,07,54,17.00
2006,05,16,07,55,17.00
2006,05,16,07,56,17.10
2006,05,16,07,57,17.20
2006,05,16,07,58,17.30
2006,05,16,07,59,17.30
2006,05,16,08,00,17.30
2006,05,16,08,01,17.30
2006,05,16,08,02,17.30
2006,05,16,08,03,17.30
2006,05,16,08,04,17.30
2006,05,16,08,05,17.20
2006,05,16,08,06,17.20
2006,05,16,08,07,17.10
2006,05,16,08,08,17.10
2006,05,16,08,09,17.10
2006,05,16,08,10,17.00
2006,05,16,08,11,17.00
2006,05,16,08,12,17.00
2006,05,16,08,13,16.90
2006,05,16,08,14,16.80
2006,05,16,08,15,16.80
2006,05,16,08,16,16.80
2006,05,16,08,17,16.80
2006,05,16,08,18,16.90
2006,05,16,08,19,16.90
2006,05,16,08,20,17.00
2006,05,16,08,21,17.00
2006,05,16,08,22,17.00
2006,05,16,08,23,17.00
2006,05,16,08,24,17.00
2006,05,16,08,25,17.00
2006,05,16,08,26,17.00
2006,05,16,08,27,17.10
2006,05,16,08,28,17.10
2006,05,16,08,29,17.10
2006,05,16,08,30,17.10
2006,05,16,08,31,17.10
2006,05,16,08,32,17.10
2006,05,16,08,33,17.10
2006,05,16,08,34,17.10
2006,05,16,08,35,17.20
2006,05,16,08,36,17.30
2006,05,16,08,37,17.30
2006,05,16,08,38,17.20
2006,05,16,08,39,17.20
2006,05,16,08,40,17.20
2006,05,16,08,41,17.10
2006,05,16,08,42,17.10
2006,05,16,08,43,17.00
2006,05,16,08,44,17.00
2006,05,16,08,45,17.00
2006,05,16,08,46,17.10
2006,05,16,08,47,17.10
2006,05,16,08,48,17.10
2006,05,16,08,49,17.10
2006,05,16,08,50,17.20
2006,05,16,08,51,17.20
2006,05,16,08,52,17.30
2006,05,16,08,53,17.30
2006,05,16,08,54,17.30
2006,05,16,08,55,17.30
2006,05,16,08,56,17.30
2006,05,16,08,57,17.30
2006,05,16,08,58,17.30
2006,05,16,08,59,17.40
2006,05,16,09,00,17.50
2006,05,16,09,01,17.70
2006,05,16,09,02,17.80
2006,05,16,09,03,17.90
2006,05,16,09,04,17.90
2006,05,16,09,05,17.90
2006,05,16,09,06,18.00
2006,05,16,09,07,18.00
2006,05,16,09,08,18.10
2006,05,16,09,09,18.10
2006,05,16,09,10,18.20
2006,05,16,09,11,18.20
2006,05,16,09,12,18.20
2006,05,16,09,13,18.20
2006,05,16,09,14,18.30
2006,05,16,09,15,18.40
2006,05,16,09,16,18.50
2006,05,16,09,17,18.60
2006,05,16,09,18,18.80
2006,05,16,09,19,19.00
2006,05,16,09,20,19.10
2006,05,16,09,21,19.30
2006,05,16,09,22,19.40
2006,05,16,09,23,19.50
2006,05,16,09,24,19.70
2006,05,16,09,25,19.90
2006,05,16,09,26,20.00
2006,05,16,09,27,20.10
2006,05,16,09,28,20.20
2006,05,16,09,29,20.20
2006,05,16,09,30,20.20
2006,05,16,09,31,20.20
2006,05,16,09,32,20.40
2006,05,16,09,33,20.50
2006,05,16,09,34,20.50
2006,05,16,09,35,20.60
2006,05,16,09,36,20.70
2006,05,16,09,37,20.70
2006,05,16,09,38,20.70
2006,05,16,09,39,20.80
2006,05,16,09,40,20.80
2006,05,16,09,41,20.80
2006,05,16,09,42,20.90
2006,05,16,09,43,21.00
2006,05,16,09,44,21.10
2006,05,16,09,45,21.20
2006,05,16,09,46,21.30
2006,05,16,09,47,21.30
2006,05,16,09,48,21.30
2006,05,16,09,49,21.30
2006,05,16,09,50,21.30
2006,05,16,09,51,21.40
2006,05,16,09,52,21.40
2006,05,16,09,53,21.40
2006,05,16,09,54,21.60
2006,05,16,09,55,21.60
2006,05,16,09,56,21.70
2006,05,16,09,57,21.70
2006,05,16,09,58,21.70
2006,05,16,09,59,21.70
2006,05,16,10,00,21.70
2006,05,16,10,01,21.70
2006,05,16,10,02,21.70
2006,05,16,10,03,21.70
2006,05,16,10,04,21.80
2006,05,16,10,05,21.80
2006,05,16,10,06,21.90
2006,05,16,10,07,22.00
2006,05,16,10,08,22.10
2006,05,16,10,09,22.20
2006,05,16,10,10,22.20
2006,05,16,10,11,22.20
2006,05,16,10,12,22.20
2006,05,16,10,13,22.10
2006,05,16,10,14,22.10
2006,05,16,10,15,22.00
2006,05,16,10,16,22.00
2006,05,16,10,17,22.00
2006,05,16,10,18,21.90
2006,05,16,10,19,21.70
2006,05,16,10,20,21.60
2006,05,16,10,21,21.50
2006,05,16,10,22,21.40
2006,05,16,10,23,21.50
2006,05,16,10,24,21.60
2006,05,16,10,25,21.60
2006,05,16,10,26,21.60
2006,05,16,10,27,21.60
2006,05,16,10,28,21.60
2006,05,16,10,29,21.60
2006,05,16,10,30,21.50
2006,05,16,10,31,21.40
2006,05,16,10,32,21.30
2006,05,16,10,33,21.30
2006,05,16,10,34,21.30
2006,05,16,10,35,21.30
2006,05,16,10,36,21.30
2006,05,16,10,37,21.30
2006,05,16,10,38,21.50
2006,05,16,10,39,21.60
2006,05,16,10,40,21.70
2006,05,16,10,41,21.80
2006,05,16,10,42,21.90
2006,05,16,10,43,22.00
2006,05,16,10,44,22.00
2006,05,16,10,45,22.10
2006,05,16,10,46,22.20
2006,05,16,10,47,22.30
2006,05,16,10,48,22.40
2006,05,16,10,49,22.50
2006,05,16,10,50,22.50
2006,05,16,10,51,22.50
2006,05,16,10,52,22.60
2006,05,16,10,53,22.70
2006,05,16,10,54,22.90
2006,05,16,10,55,23.00
2006,05,16,10,56,23.10
2006,05,16,10,57,23.10
2006,05,16,10,58,23.10
2006,05,16,10,59,23.20
2006,05,16,11,00,23.20
2006,05,16,11,01,23.20
2006,05,16,11,02,23.20
2006,05,16,11,03,23.10
2006,05,16,11,04,23.10
2006,05,16,11,05,23.00
2006,05,16,11,06,23.00
2006,05,16,11,07,23.20
2006,05,16,11,08,23.30
2006,05,16,11,09,23.30
2006,05,16,11,10,23.30
2006,05,16,11,11,23.30
2006,05,16,11,12,23.30
2006,05,16,11,13,23.30
2006,05,16,11,14,23.30
2006,05,16,11,15,23.30
2006,05,16,11,16,23.30
2006,05,16,11,17,23.20
2006,05,16,11,18,23.20
2006,05,16,11,19,23.20
2006,05,16,11,20,23.20
2006,05,16,11,21,23.20
2006,05,16,11,22,23.30
2006,05,16,11,23,23.30
2006,05,16,11,24,23.20
2006,05,16,11,25,23.30
2006,05,16,11,26,23.20
2006,05,16,11,27,23.30
2006,05,16,11,28,23.30
2006,05,16,11,29,23.30
2006,05,16,11,30,23.40
2006,05,16,11,31,23.40
2006,05,16,11,32,23.40
2006,05,16,11,33,23.50
2006,05,16,11,34,23.60
2006,05,16,11,35,23.70
2006,05,16,11,36,23.80
2006,05,16,11,37,23.90
2006,05,16,11,38,23.90
2006,05,16,11,39,23.90
2006,05,16,11,40,23.80
2006,05,16,11,41,23.90
2006,05,16,11,42,23.90
2006,05,16,11,43,23.80
2006,05,16,11,44,23.80
2006,05,16,11,45,23.80
2006,05,16,11,46,23.80
2006,05,16,11,47,23.70
2006,05,16,11,48,23.70
2006,05,16,11,49,23.70
2006,05,16,11,50,23.60
2006,05,16,11,51,23.60
2006,05,16,11,52,23.60
2006,05,16,11,53,23.70
2006,05,16,11,54,23.70
2006,05,16,11,55,23.70
2006,05,16,11,56,23.70
2006,05,16,11,57,23.70
2006,05,16,11,58,23.70
2006,05,16,11,59,23.80
2006,05,16,12,00,23.80
2006,05,16,12,01,24.10
2006,05,16,12,02,24.10
2006,05,16,12,03,24.10
2006,05,16,12,04,24.10
2006,05,16,12,05,24.10
2006,05,16,12,06,24.10
2006,05,16,12,07,24.10
2006,05,16,12,08,24.10
2006,05,16,12,09,24.20
2006,05,16,12,10,24.20
2006,05,16,12,11,24.30
2006,05,16,12,12,24.40
2006,05,16,12,13,24.40
2006,05,16,12,14,24.50
2006,05,16,12,15,24.50
2006,05,16,12,16,24.50
2006,05,16,12,17,24.40
2006,05,16,12,18,24.40
2006,05,16,12,19,24.40
2006,05,16,12,20,24.40
2006,05,16,12,21,24.50
2006,05,16,12,22,24.50
2006,05,16,12,23,24.40
2006,05,16,12,24,24.20
2006,05,16,12,25,24.20
2006,05,16,12,26,24.10
2006,05,16,12,27,24.10
2006,05,16,12,28,24.10
2006,05,16,12,29,24.10
2006,05,16,12,30,24.00
2006,05,16,12,31,23.90
2006,05,16,12,32,23.90
2006,05,16,12,33,23.90
2006,05,16,12,34,24.10
2006,05,16,12,35,24.10
2006,05,16,12,36,24.10
2006,05,16,12,37,24.20
2006,05,16,12,38,24.40
2006,05,16,12,39,24.40
2006,05,16,12,40,24.50
2006,05,16,12,41,24.50
2006,05,16,12,42,24.50
2006,05,16,12,43,24.40
2006,05,16,12,44,24.40
2006,05,16,12,45,24.30
2006,05,16,12,46,24.20
2006,05,16,12,47,24.20
2006,05,16,12,48,24.10
2006,05,16,12,49,24.10
2006,05,16,12,50,24.10
2006,05,16,12,51,24.00
2006,05,16,12,52,23.90
2006,05,16,12,53,23.90
2006,05,16,12,54,23.90
2006,05,16,12,55,23.80
2006,05,16,12,56,23.80
2006,05,16,12,57,23.70
2006,05,16,12,58,23.80
2006,05,16,12,59,23.90
2006,05,16,13,00,24.00
2006,05,16,13,01,24.10
2006,05,16,13,02,24.10
2006,05,16,13,03,24.20
2006,05,16,13,04,24.30
2006,05,16,13,05,24.40
2006,05,16,13,06,24.40
2006,05,16,13,07,24.40
2006,05,16,13,08,24.40
2006,05,16,13,09,24.40
2006,05,16,13,10,24.50
2006,05,16,13,11,24.60
2006,05,16,13,12,24.80
2006,05,16,13,13,24.80
2006,05,16,13,14,24.90
2006,05,16,13,15,25.00
2006,05,16,13,16,25.00
2006,05,16,13,17,25.00
2006,05,16,13,18,25.10
2006,05,16,13,19,25.20
2006,05,16,13,20,25.20
2006,05,16,13,21,25.20
2006,05,16,13,22,25.20
2006,05,16,13,23,25.10
2006,05,16,13,24,25.10
2006,05,16,13,25,25.10
2006,05,16,13,26,25.10
2006,05,16,13,27,25.10
2006,05,16,13,28,25.10
2006,05,16,13,29,25.10
2006,05,16,13,30,25.00
2006,05,16,13,31,25.00
2006,05,16,13,32,25.00
2006,05,16,13,33,25.00
2006,05,16,13,34,25.00
2006,05,16,13,35,25.10
2006,05,16,13,36,25.10
2006,05,16,13,37,25.20
2006,05,16,13,38,25.20
2006,05,16,13,39,25.30
2006,05,16,13,40,25.30
2006,05,16,13,41,25.30
2006,05,16,13,42,25.30
2006,05,16,13,43,25.30
2006,05,16,13,44,25.30
2006,05,16,13,45,25.30
2006,05,16,13,46,25.30
2006,05,16,13,47,25.20
2006,05,16,13,48,25.30
2006,05,16,13,49,25.30
2006,05,16,13,50,25.30
2006,05,16,13,51,25.50
2006,05,16,13,52,25.50
2006,05,16,13,53,25.60
2006,05,16,13,54,25.50
2006,05,16,13,55,25.60
2006,05,16,13,56,25.60
2006,05,16,13,57,25.60
2006,05,16,13,58,25.70
2006,05,16,13,59,25.60
2006,05,16,14,00,25.60
2006,05,16,14,01,25.50
2006,05,16,14,02,25.50
2006,05,16,14,03,25.50
2006,05,16,14,04,25.40
2006,05,16,14,05,25.40
2006,05,16,14,06,25.40
2006,05,16,14,07,25.40
2006,05,16,14,08,25.40
2006,05,16,14,09,25.50
2006,05,16,14,10,25.50
2006,05,16,14,11,25.50
2006,05,16,14,12,25.40
2006,05,16,14,13,25.40
2006,05,16,14,14,25.40
2006,05,16,14,15,25.40
2006,05,16,14,16,25.40
2006,05,16,14,17,25.40
2006,05,16,14,18,25.40
2006,05,16,14,19,25.40
2006,05,16,14,20,25.50
2006,05,16,14,21,25.50
2006,05,16,14,22,25.50
2006,05,16,14,23,25.40
2006,05,16,14,24,25.50
2006,05,16,14,25,25.50
2006,05,16,14,26,25.50
2006,05,16,14,27,25.60
2006,05,16,14,28,25.60
2006,05,16,14,29,25.70
2006,05,16,14,30,25.70
2006,05,16,14,31,25.60
2006,05,16,14,32,25.60
2006,05,16,14,33,25.70
2006,05,16,14,34,25.70
2006,05,16,14,35,25.80
2006,05,16,14,36,25.80
2006,05,16,14,37,25.90
2006,05,16,14,38,25.90
2006,05,16,14,39,26.00
2006,05,16,14,40,26.10
2006,05,16,14,41,26.10
2006,05,16,14,42,26.20
2006,05,16,14,43,26.20
2006,05,16,14,44,26.20
2006,05,16,14,45,26.20
2006,05,16,14,46,26.10
2006,05,16,14,47,26.10
2006,05,16,14,48,26.10
2006,05,16,14,49,26.10
2006,05,16,14,50,26.10
2006,05,16,14,51,26.10
2006,05,16,14,52,26.20
2006,05,16,14,53,26.20
2006,05,16,14,54,26.20
2006,05,16,14,55,26.30
2006,05,16,14,56,26.30
2006,05,16,14,57,26.30
2006,05,16,14,58,26.20
2006,05,16,14,59,26.20
2006,05,16,15,00,26.20
2006,05,16,15,01,26.20
2006,05,16,15,02,26.20
2006,05,16,15,03,26.20
2006,05,16,15,04,26.20
2006,05,16,15,05,26.20
2006,05,16,15,06,26.10
2006,05,16,15,07,26.10
2006,05,16,15,08,26.10
2006,05,16,15,09,26.10
2006,05,16,15,10,26.00
2006,05,16,15,11,26.00
2006,05,16,15,12,26.00
2006,05,16,15,13,26.00
2006,05,16,15,14,26.00
2006,05,16,15,15,26.10
2006,05,16,15,16,26.10
2006,05,16,15,17,26.00
2006,05,16,15,18,26.00
2006,05,16,15,19,25.90
2006,05,16,15,20,25.80
2006,05,16,15,21,25.80
2006,05,16,15,22,25.90
2006,05,16,15,23,25.90
2006,05,16,15,24,25.90
2006,05,16,15,25,25.90
2006,05,16,15,26,25.90
2006,05,16,15,27,25.80
2006,05,16,15,28,25.60
2006,05,16,15,29,25.60
2006,05,16,15,30,25.50
2006,05,16,15,31,25.50
2006,05,16,15,32,25.60
2006,05,16,15,33,25.60
2006,05,16,15,34,25.60
2006,05,16,15,35,25.60
2006,05,16,15,36,25.60
2006,05,16,15,37,25.50
2006,05,16,15,38,25.50
2006,05,16,15,39,25.50
2006,05,16,15,40,25.30
2006,05,16,15,41,25.30
2006,05,16,15,42,25.20
2006,05,16,15,43,25.20
2006,05,16,15,44,25.20
2006,05,16,15,45,25.10
2006,05,16,15,46,25.10
2006,05,16,15,47,25.10
2006,05,16,15,48,25.10
2006,05,16,15,49,25.20
2006,05,16,15,50,25.20
2006,05,16,15,51,25.20
2006,05,16,15,52,25.20
2006,05,16,15,53,25.20
2006,05,16,15,54,25.20
2006,05,16,15,55,25.30
2006,05,16,15,56,25.30
2006,05,16,15,57,25.30
2006,05,16,15,58,25.30
2006,05,16,15,59,25.30
2006,05,16,16,00,25.30
2006,05,16,16,01,25.20
2006,05,16,16,02,25.20
2006,05,16,16,03,25.30
2006,05,16,16,04,25.30
2006,05,16,16,05,25.20
2006,05,16,16,06,25.30
2006,05,16,16,07,25.30
2006,05,16,16,08,25.40
2006,05,16,16,09,25.40
2006,05,16,16,10,25.40
2006,05,16,16,11,25.50
2006,05,16,16,12,25.50
2006,05,16,16,13,25.50
2006,05,16,16,14,25.50
2006,05,16,16,15,25.30
2006,05,16,16,16,25.20
2006,05,16,16,17,25.10
2006,05,16,16,18,25.10
2006,05,16,16,19,25.10
2006,05,16,16,20,25.10
2006,05,16,16,21,25.10
2006,05,16,16,22,25.10
2006,05,16,16,23,25.00
2006,05,16,16,24,25.00
2006,05,16,16,25,24.90
2006,05,16,16,26,24.90
2006,05,16,16,27,24.80
2006,05,16,16,28,24.80
2006,05,16,16,29,24.80
2006,05,16,16,30,24.80
2006,05,16,16,31,24.80
2006,05,16,16,32,24.80
2006,05,16,16,33,24.80
2006,05,16,16,34,24.80
2006,05,16,16,35,24.80
2006,05,16,16,36,24.80
2006,05,16,16,37,24.80
2006,05,16,16,38,24.80
2006,05,16,16,39,24.80
2006,05,16,16,40,24.80
2006,05,16,16,41,24.80
2006,05,16,16,42,24.80
2006,05,16,16,43,24.80
2006,05,16,16,44,24.80
2006,05,16,16,45,24.70
2006,05,16,16,46,24.70
2006,05,16,16,47,24.70
2006,05,16,16,48,24.70
2006,05,16,16,49,24.70
2006,05,16,16,50,24.80
2006,05,16,16,51,24.80
2006,05,16,16,52,24.90
2006,05,16,16,53,24.90
2006,05,16,16,54,24.80
2006,05,16,16,55,24.80
2006,05,16,16,56,24.70
2006,05,16,16,57,24.70
2006,05,16,16,58,24.70
2006,05,16,16,59,24.60
2006,05,16,17,00,24.60
2006,05,16,17,01,24.50
2006,05,16,17,02,24.30
2006,05,16,17,03,24.30
2006,05,16,17,04,24.10
2006,05,16,17,05,24.10
2006,05,16,17,06,24.00
2006,05,16,17,07,23.90
2006,05,16,17,08,23.90
2006,05,16,17,09,23.80
2006,05,16,17,10,23.80
2006,05,16,17,11,23.80
2006,05,16,17,12,23.70
2006,05,16,17,13,23.70
2006,05,16,17,14,23.70
2006,05,16,17,15,23.70
2006,05,16,17,16,23.60
2006,05,16,17,17,23.50
2006,05,16,17,18,23.50
2006,05,16,17,19,23.50